Location: Lake Almanor
(40.2485°N, 121.1442°W)
Time: 05:29:58
(UTC-08:00)

N. Korean satellite - Pass Details

Date: 28 January 2020
Orbit: 456 x 505 km, 97.2° (Epoch: 24 February)

Event Time Altitude Azimuth Distance (km) Brightness Sun altitude
Rises 05:52:21 0° 11° (NNE) 2,552 10.2 -16.3°
Reaches altitude 10° 05:54:24 10° 12° (NNE) 1,675 9.3 -16.0°
Maximum altitude 05:58:01 89° 93° (E) 496 6.5 -15.3°
Drops below altitude 10° 06:01:39 10° 193° (SSW) 1,688 9.3 -14.6°
Sets 06:03:44 0° 193° (SSW) 2,572 10.2 -14.2°
